Overview Statistics Trail Chart Weather Telemetry Raw packets
 

This is the latest recevied weather packets stored in our database for station/object KA1JKB. If no packets are shown the sender has not sent any weather packets the latest 10 day(s).

<< 76 77 78 79 80 81 82 >>
Time Temp. Humidity Pressure Rain* Wind** Luminosity Snow
1787884269 18.33° C 90% 1014.7 hPa 0 mm - 0 W/m² -
1787883964 18.33° C 91% 1014.2 hPa 0 mm - 0 W/m² -
1787883659 18.33° C 91% 1014.1 hPa 0 mm - 0 W/m² -
1787883355 18.33° C 91% 1014.2 hPa 0 mm - 0 W/m² -
1787883054 18.33° C 91% 1014 hPa 0 mm - 0 W/m² -
1787882750 18.33° C 91% 1013.9 hPa 0 mm - 0 W/m² -
1787882446 18.33° C 90% 1014.1 hPa 0 mm - 0 W/m² -
1787882141 18.33° C 90% 1014.1 hPa 0 mm - 0 W/m² -
1787881841 18.89° C 90% 1014 hPa 0 mm - 0 W/m² -
1787881536 18.33° C 90% 1014.1 hPa 0 mm - 0 W/m² -
1787881232 18.33° C 90% 1014.1 hPa 0 mm - 0 W/m² -
1787880927 18.33° C 91% 1013.9 hPa 0 mm - 0 W/m² -
1787880627 17.78° C 93% 1014.1 hPa 0 mm - 0 W/m² -
1787880326 17.78° C 94% 1013.7 hPa 0 mm - 0 W/m² -
1787880021 17.78° C 95% 1013.9 hPa 0 mm - 0 W/m² -
1787879716 17.22° C 96% 1013.6 hPa 0 mm - 0 W/m² -
1787879411 17.22° C 96% 1013.5 hPa 0 mm - 0 W/m² -
1787879107 17.22° C 95% 1013.5 hPa 0 mm - 0 W/m² -
1787878803 17.22° C 94% 1013.6 hPa 0 mm - 0 W/m² -
1787878501 17.78° C 93% 1013.5 hPa 0 mm - 0 W/m² -
1787878197 17.78° C 92% 1013.5 hPa 0 mm - 0 W/m² -
1787877893 18.33° C 90% 1013.2 hPa 0 mm - 0 W/m² -
1787877588 18.89° C 88% 1013.3 hPa 0 mm - 0 W/m² -
1787877284 19.44° C 87% 1013.4 hPa 0 mm - 0 W/m² -
1787876983 19.44° C 85% 1013.2 hPa 0 mm - 0 W/m² -

* Rain latest hour (hover to see other rain measurements)
** Current wind speed in m/s (hover to see current wind gust speed)